Location: New Plymouth
(39.0670°S, 174.0830°E)
Time: 22:18:15
(UTC+12:00)

NOAA 19 - Pass Details

Date: 26 August 2019
Orbit: 840 x 862 km, 99.2° (Epoch: 15 September)

Event Time Altitude Azimuth Distance (km) Brightness Sun altitude
Rises 05:38:49 0° 352° (N) 3,385 8.3 -15.8°
Reaches altitude 10° 05:41:21 10° 343° (NNW) 2,460 7.5 -15.3°
Maximum altitude 05:46:18 35° 278° (W) 1,342 5.7 -14.3°
Drops below altitude 10° 05:51:21 10° 212° (SSW) 2,496 7.3 -13.4°
Sets 05:53:57 0° 203° (SSW) 3,442 8.1 -12.8°
